GFSFLT2_sfc_rhum_132.txt.gz
RH
58 60 70 97 95 95 96 95 93 92 92 93 93 95 95 95 95 95 95 94 94 93 94 92 90 91 91 92 93 92 52 38
62 64 64 63 65 96 96 96 96 95 94 94 95 96 95 95 95 96 95 96 95 94 94 93 92 93 93 94 94 92 54 40
58 64 63 67 64 66 92 96 95 96 91 95 90 58 57 62 74 87 95 96 95 95 95 95 95 94 94 94 95 49 42 41
48 58 61 64 54 61 64 60 59 62 61 60 62 59 53 51 64 90 95 97 97 97 96 96 91 46 48 84 54 46 42 41
32 52 63 64 54 52 53 55 60 66 68 62 59 57 59 55 52 58 64 86 66 82 75 62 54 46 42 43 44 48 42 41
53 59 63 71 60 50 57 76 74 81 80 79 81 79 74 62 53 67 63 57 62 66 68 64 56 55 52 51 53 49 41 43
60 64 70 71 67 77 80 85 86 83 83 85 85 88 87 82 80 70 71 68 72 73 69 66 64 62 58 56 55 54 53 47
54 56 64 67 83 90 93 92 91 91 92 91 88 90 89 85 85 78 73 67 70 77 84 83 71 68 65 65 60 62 56 56
50 53 57 62 66 73 85 87 92 94 95 91 88 89 91 85 85 88 85 78 76 79 77 81 81 78 77 78 68 67 64 60
46 44 51 55 60 59 57 70 69 73 80 80 82 76 78 86 88 88 87 87 89 94 84 78 84 88 84 80 70 73 69 64
44 50 50 51 50 52 48 54 48 47 50 51 60 60 62 60 66 84 87 87 79 76 85 81 89 94 90 89 86 77 74 63
40 44 49 45 40 41 38 36 41 42 43 48 56 51 57 56 52 60 63 82 84 76 71 71 74 75 80 90 92 87 73 71
40 46 50 42 37 37 37 41 42 41 39 50 52 54 58 56 52 55 57 58 74 86 91 90 71 63 81 92 90 83 89 72
45 45 48 47 39 39 41 42 40 41 40 45 50 55 59 53 60 56 58 57 60 64 75 90 91 86 88 82 88 76 74 68
48 48 48 51 52 41 40 38 37 38 40 40 47 53 58 62 59 60 61 59 57 63 63 70 89 87 89 89 85 80 56 70
50 51 49 48 52 49 55 46 45 45 44 43 47 52 55 58 62 63 65 61 63 60 53 62 74 89 89 89 88 72 77 77
50 49 49 51 51 54 50 54 49 46 47 53 52 51 52 54 62 67 66 65 65 72 72 67 61 61 67 81 91 80 79 85
49 49 47 50 53 55 59 60 57 54 55 54 51 51 50 55 59 65 69 73 73 70 71 74 75 75 68 64 80 95 85 79
47 49 52 53 56 56 56 59 60 59 62 58 61 56 56 59 63 66 66 67 72 74 75 74 74 76 78 72 60 62 82 90
50 51 54 55 58 59 58 60 59 58 62 64 61 62 62 63 63 65 69 71 73 75 77 78 78 81 82 78 74 68 59 74

GFSFLT2_sfc_rhum_135.txt.gz
RH
46 56 74 95 94 93 93 92 90 90 90 92 94 95 96 95 94 94 94 94 93 92 94 93 91 89 90 92 92 91 59 42
45 52 58 63 69 95 95 95 94 93 91 91 93 94 94 96 95 95 94 94 95 94 93 94 91 90 92 93 93 91 58 44
36 48 50 59 59 68 92 94 94 94 91 94 91 60 57 64 75 84 93 96 95 94 95 95 93 93 93 93 94 54 44 41
30 42 48 51 45 55 60 57 59 62 60 59 63 58 50 46 59 85 93 95 96 96 96 96 94 58 62 90 62 48 40 34
46 55 60 50 41 38 39 40 46 70 71 73 63 74 70 52 54 76 63 87 62 72 70 70 68 62 50 58 49 46 40 33
48 50 63 74 61 70 58 57 80 72 78 76 75 83 79 72 76 76 77 78 68 60 55 61 64 55 50 50 49 43 36 33
52 54 61 64 73 83 80 83 83 91 91 90 86 86 84 80 82 74 75 78 71 73 73 67 65 62 60 60 56 51 48 40
47 50 60 60 68 79 83 87 92 93 93 90 90 92 95 93 84 81 82 84 81 75 71 65 69 76 73 70 60 55 56 64
47 48 52 57 61 62 69 70 73 83 84 82 80 82 87 88 94 89 87 87 85 85 85 83 80 74 78 76 73 66 66 67
42 40 47 50 56 52 51 54 57 62 64 66 72 71 72 81 87 88 91 96 92 93 97 95 96 90 88 76 71 71 73 72
40 45 44 44 45 47 44 48 53 52 46 49 57 56 57 58 54 56 64 71 80 84 85 86 85 85 88 87 75 75 77 61
36 40 44 40 36 37 38 37 41 40 40 46 53 50 54 54 48 55 56 53 57 69 81 80 76 74 72 73 69 70 82 82
40 45 48 40 33 34 34 36 36 35 36 44 47 50 55 55 50 52 51 52 57 60 60 81 83 78 92 83 71 70 77 75
44 44 46 46 39 38 38 36 34 34 34 38 43 48 53 50 58 55 56 56 58 58 61 62 66 72 96 93 88 67 74 79
43 43 43 47 48 40 41 38 38 37 38 36 43 46 50 55 55 58 61 58 55 60 59 63 61 58 75 96 95 84 68 57
43 41 40 42 47 44 50 43 43 42 41 40 44 46 48 50 55 57 61 58 62 59 53 65 65 63 56 57 82 90 87 74
44 40 41 44 47 50 48 51 46 43 44 51 48 47 47 47 54 60 61 61 64 68 69 68 64 66 62 58 59 64 75 89
44 42 42 47 50 51 55 57 55 52 52 51 49 48 48 52 56 61 65 64 66 67 68 71 70 71 69 66 62 64 58 67
41 44 48 49 52 52 54 55 56 55 56 56 59 55 55 59 61 66 64 67 68 71 72 74 73 73 74 78 69 62 54 52
45 45 50 51 54 53 53 54 52 52 57 58 57 61 60 61 64 65 64 64 68 70 73 74 74 79 79 79 77 73 68 60

GFSFLT2_sfc_rhum_138.txt.gz
RH
77 77 83 94 93 92 92 89 89 90 92 94 95 95 95 94 94 93 93 93 95 93 91 93 93 91 90 91 92 90 88 70
58 73 83 82 86 95 94 94 94 92 90 91 94 96 95 95 95 94 93 93 94 94 94 94 94 92 91 92 92 91 88 68
70 72 65 68 77 84 93 92 92 92 93 93 95 84 78 82 88 88 94 94 94 94 95 95 95 93 92 93 93 83 68 64
59 66 72 79 50 90 83 81 83 82 77 78 84 79 74 60 72 88 92 94 94 95 95 96 98 82 86 94 88 75 63 57
54 60 70 74 80 81 89 89 89 88 83 86 84 86 87 85 82 92 90 93 85 90 92 92 84 80 72 84 83 72 62 55
55 58 69 74 73 86 95 89 90 91 94 94 96 97 94 92 91 88 87 92 90 86 77 77 79 74 74 68 76 68 58 55
57 60 69 70 78 81 90 93 94 94 92 90 89 93 94 94 94 93 91 90 89 88 84 82 74 73 73 66 68 66 62 66
54 55 65 67 74 81 81 81 86 87 86 82 85 88 90 87 91 94 93 96 95 91 90 86 89 90 88 80 81 76 70 68
54 56 61 66 71 71 77 75 75 80 77 77 78 75 79 84 90 94 97 96 96 96 98 97 99 99 98 96 90 84 77 80
51 46 56 61 64 68 66 68 72 73 75 70 70 73 70 73 84 90 81 85 95 96 96 98 98 97 97 95 97 94 84 80
49 56 54 58 59 57 60 62 61 64 60 59 68 65 66 69 65 68 70 69 70 88 87 96 96 97 95 95 93 93 87 79
48 54 58 57 52 51 50 52 58 59 58 62 66 62 66 68 65 70 67 66 67 70 76 81 91 92 88 91 93 87 94 94
49 55 60 54 50 52 53 56 54 56 49 59 60 63 65 66 68 68 69 70 73 72 74 76 80 87 96 96 92 84 88 91
51 50 53 55 52 52 58 58 55 51 53 59 58 62 64 57 68 69 70 71 70 72 75 77 74 75 94 95 96 85 88 82
48 46 48 55 57 50 52 52 53 51 51 52 56 59 60 66 66 70 72 71 73 74 74 79 84 76 77 93 97 94 90 79
48 47 49 51 58 58 62 58 58 57 56 55 56 58 59 61 68 68 71 73 74 74 67 77 80 84 75 67 82 92 96 86
55 49 50 54 57 62 61 65 61 58 59 62 61 60 59 62 67 70 72 69 71 74 72 71 70 76 80 80 78 75 76 93
57 53 52 56 59 62 66 67 65 63 65 65 64 62 63 65 63 67 68 70 70 73 68 74 75 74 74 71 76 83 78 78
52 51 56 58 61 61 63 63 65 64 66 67 67 67 66 65 67 69 64 67 70 70 72 72 76 79 78 78 71 72 74 76
52 52 57 59 61 62 62 63 62 63 66 65 68 68 68 65 67 67 65 66 68 69 73 73 72 79 77 78 79 77 72 70

GFSFLT2_sfc_rhum_141.txt.gz
RH
90 91 89 90 90 90 90 89 91 92 94 95 95 95 95 95 94 93 93 93 94 95 94 92 94 94 92 92 92 91 94 88
68 77 91 95 96 95 94 93 93 92 90 92 96 97 96 95 96 95 94 93 94 95 96 94 95 96 95 93 92 92 95 93
60 69 74 88 88 90 95 94 92 92 91 91 94 97 96 96 96 96 95 95 95 95 95 96 96 96 95 94 93 98 94 83
64 69 74 76 73 93 96 92 96 96 94 92 95 95 93 78 91 96 94 96 94 95 95 96 98 98 98 95 96 94 86 75
65 69 73 81 88 97 96 98 96 98 96 97 98 97 97 95 97 96 97 97 92 93 90 95 97 98 93 93 92 92 85 75
62 67 72 80 86 93 96 98 97 97 95 94 97 98 96 96 97 97 98 97 96 96 96 85 93 89 91 88 92 89 80 75
66 67 69 72 92 94 94 92 90 91 91 89 83 85 87 92 96 98 96 97 97 96 97 97 91 84 96 94 95 93 89 84
64 65 66 71 80 91 91 90 84 74 68 75 80 79 85 78 83 90 96 98 96 97 97 99 99 97 95 97 96 93 92 93
60 58 62 66 65 77 81 88 82 74 67 66 73 70 71 74 81 90 88 90 86 97 98 98 99 98 98 96 94 89 95 96
63 57 62 63 62 71 70 77 76 74 75 74 72 72 68 70 75 78 71 73 87 89 92 95 96 97 98 96 97 96 87 91
65 66 65 65 60 60 62 64 74 73 74 67 70 69 67 74 72 74 74 75 76 81 84 92 97 96 95 96 97 98 92 91
64 65 68 65 66 61 62 64 65 67 70 67 73 71 69 77 72 76 72 72 74 74 79 81 88 93 83 88 97 97 96 95
64 68 68 66 70 70 69 72 68 63 64 62 66 67 67 76 78 74 73 76 76 74 76 81 84 81 97 95 96 96 96 93
59 61 66 68 70 69 72 76 72 63 62 61 64 63 68 66 73 75 75 78 78 78 80 85 90 80 97 96 98 90 94 94
57 61 67 70 70 71 70 69 68 67 65 66 63 63 70 71 71 74 76 77 81 81 80 80 88 87 83 96 97 97 90 86
61 63 65 65 74 76 78 80 80 77 73 68 68 65 67 68 70 72 75 76 73 70 69 71 74 84 82 74 78 86 99 96
67 66 68 71 74 76 83 82 80 75 73 74 71 70 67 65 70 71 68 66 67 69 66 70 70 78 77 75 81 81 78 92
70 69 71 72 74 76 79 80 77 78 78 79 76 74 72 67 65 67 67 68 70 71 71 68 68 71 76 76 78 80 81 81
68 71 73 72 74 75 73 75 76 77 80 81 79 76 75 74 72 69 70 69 70 70 72 73 72 75 78 80 78 77 76 78
69 71 73 73 74 74 74 75 78 78 81 82 79 77 75 73 74 72 72 71 71 71 74 73 72 78 76 78 81 79 77 78